This demonstration page uses our WeatherBlox Daily Observations layout. Learn more.

Left ArrowRight Arrow

Hourly Observations for November 25, 2020

Temp ( °F °C ) Dew Point ( °F °C ) Humidity (%) Winds ( mph kmh ) Pressure ( in mb ) Visibility ( mi km ) Precip ( " mm )
12:56 am 00:56 Clear 29 -1.7 23 -5 78 78 NNW 10 17 29.96 1014 10 16 0.00 0.00
1:56 am 01:56 Clear 28 -2.2 22 -5.6 78 78 NNW 10 17 29.95 1014 10 16 0.00 0.00
2:56 am 02:56 Clear 27 -2.8 22 -5.6 81 81 NW 12 19 29.96 1015 10 16 0.00 0.00
3:56 am 03:56 Clear 26 -3.3 21 -6.1 81 81 NW 9 15 29.98 1015 10 16 0.00 0.00
4:56 am 04:56 Clear 25 -3.9 20 -6.7 81 81 NW 10 17 29.97 1015 10 16 0.00 0.00
5:56 am 05:56 Clear 25 -3.9 19 -7.2 78 78 NW 9 15 29.98 1015 10 16 0.00 0.00
6:56 am 06:56 Clear 24 -4.4 19 -7.2 81 81 NW 8 13 29.99 1016 10 16 0.00 0.00
7:56 am 07:56 Sunny 25 -3.9 19 -7.2 78 78 WNW 10 17 30.00 1016 10 16 0.00 0.00
8:56 am 08:56 Sunny 28 -2.2 21 -6.1 75 75 NW 7 11 30.01 1016 10 16 0.00 0.00
9:56 am 09:56 Sunny 33 0.6 22 -5.6 64 64 WNW 7 11 30.02 1017 10 16 0.00 0.00
10:56 am 10:56 Sunny 38 3.3 23 -5 55 55 WNW 6 9 30.01 1016 10 16 0.00 0.00
11:56 am 11:56 Sunny 43 6.1 22 -5.6 43 43 Calm 29.97 1015 10 16 0.00 0.00
12:56 pm 12:56 Sunny 46 7.8 24 -4.4 42 42 VRB 5 7 29.94 1014 10 16 0.00 0.00
1:56 pm 13:56 Sunny 48 8.9 23 -5 37 37 SW 8 13 29.92 1013 10 16 0.00 0.00
2:56 pm 14:56 Sunny 50 10 24 -4.4 36 36 SSW 12 19 29.89 1012 10 16 0.00 0.00
3:56 pm 15:56 Sunny 50 10 24 -4.4 36 36 SSW 12 19 29.89 1012 10 16 0.00 0.00
6:56 pm 18:56 Clear 36 2.2 25 -3.9 64 64 S 13 20 29.91 1013 10 16 0.00 0.00
7:56 pm 19:56 Clear 34 1.1 25 -3.9 70 70 S 8 13 29.91 1013 10 16 0.00 0.00
8:56 pm 20:56 Clear 35 1.7 26 -3.3 70 70 S 7 11 29.91 1013 10 16 0.00 0.00
9:56 pm 21:56 Clear 36 2.2 27 -2.8 70 70 SSW 10 17 29.91 1013 10 16 0.00 0.00
10:56 pm 22:56 Clear 37 2.8 28 -2.2 70 70 SSW 12 19 29.90 1013 10 16 0.00 0.00
11:56 pm 23:56 Clear 37 2.8 27 -2.8 67 67 SSW 12 19 29.90 1013 10 16 0.00 0.00

Powered by AerisWeather